Time,TemperatureF,DewpointF,PressureIn,WindDirection,WindDirectionDegrees,WindSpeedMPH,WindSpeedGustMPH,Humidity,HourlyPrecipIn,Conditions,Clouds,dailyrainin,SoftwareType,DateUTC
2013-04-23 04:00:00,38.0,-99.9,30.14,ESE,110,11.0,-999.0,-999,-99.99,,,-99.99,,2013-04-23 04:00:00,
2013-04-23 04:33:00,38.0,-99.9,30.14,ESE,110,11.0,-999.0,-999,-99.99,,,-99.99,,2013-04-23 04:33:00,
2013-04-23 04:44:00,38.0,-99.9,30.14,ESE,110,11.0,-999.0,-999,-99.99,,,-99.99,,2013-04-23 04:44:00,
2013-04-23 04:53:00,38.0,-99.9,30.14,ESE,110,11.0,-999.0,-999,-99.99,,,-99.99,,2013-04-23 04:53:00,
2013-04-23 05:00:00,38.0,-99.9,30.12,NNE,30,5.0,-999.0,-999,-99.99,,,-99.99,,2013-04-23 05:00:00,
2013-04-23 05:22:00,38.0,-99.9,30.12,NNE,30,5.0,-999.0,-999,-99.99,,,-99.99,,2013-04-23 05:22:00,
2013-04-23 05:33:00,38.0,-99.9,30.12,NNE,30,5.0,-999.0,-999,-99.99,,,-99.99,,2013-04-23 05:33:00,
2013-04-23 05:43:00,38.0,-99.9,30.12,NNE,30,5.0,-999.0,-999,-99.99,,,-99.99,,2013-04-23 05:43:00,
2013-04-23 05:52:00,38.0,-99.9,30.12,NNE,30,5.0,-999.0,-999,-99.99,,,-99.99,,2013-04-23 05:52:00,
2013-04-23 10:00:00,42.0,-99.9,29.93,SSE,150,14.0,-999.0,-999,-99.99,,,-99.99,,2013-04-23 10:00:00,
2013-04-23 10:23:00,42.0,-99.9,29.93,SSE,150,14.0,-999.0,-999,-99.99,,,-99.99,,2013-04-23 10:23:00,
2013-04-23 10:33:00,42.0,-99.9,29.93,SSE,150,14.0,-999.0,-999,-99.99,,,-99.99,,2013-04-23 10:33:00,
2013-04-23 10:43:00,42.0,-99.9,29.93,SSE,150,14.0,-999.0,-999,-99.99,,,-99.99,,2013-04-23 10:43:00,
2013-04-23 10:53:00,42.0,-99.9,29.93,SSE,150,14.0,-999.0,-999,-99.99,,,-99.99,,2013-04-23 10:53:00,
2013-04-23 11:00:00,43.0,-99.9,29.93,SSE,160,16.0,-999.0,-999,-99.99,,,-99.99,,2013-04-23 11:00:00,
2013-04-23 11:22:00,43.0,-99.9,29.93,SSE,160,16.0,-999.0,-999,-99.99,,,-99.99,,2013-04-23 11:22:00,
2013-04-23 11:33:00,43.0,-99.9,29.93,SSE,160,16.0,-999.0,-999,-99.99,,,-99.99,,2013-04-23 11:33:00,
2013-04-23 11:43:00,43.0,-99.9,29.93,SSE,160,16.0,-999.0,-999,-99.99,,,-99.99,,2013-04-23 11:43:00,
2013-04-23 11:53:00,43.0,-99.9,29.93,SSE,160,16.0,-999.0,-999,-99.99,,,-99.99,,2013-04-23 11:53:00,
2013-04-23 12:00:00,44.0,-99.9,29.91,South,190,16.0,-999.0,-999,-99.99,,,-99.99,,2013-04-23 12:00:00,
2013-04-23 12:32:00,44.0,-99.9,29.91,South,190,16.0,-999.0,-999,-99.99,,,-99.99,,2013-04-23 12:32:00,
2013-04-23 12:42:00,44.0,-99.9,29.91,South,190,16.0,-999.0,-999,-99.99,,,-99.99,,2013-04-23 12:42:00,
2013-04-23 12:52:00,44.0,-99.9,29.91,South,190,16.0,-999.0,-999,-99.99,,,-99.99,,2013-04-23 12:52:00,
2013-04-23 13:00:00,42.0,-99.9,29.92,SSE,160,15.0,-999.0,-999,-99.99,,,-99.99,,2013-04-23 13:00:00,
2013-04-23 13:22:00,42.0,-99.9,29.92,SSE,160,15.0,-999.0,-999,-99.99,,,-99.99,,2013-04-23 13:22:00,
2013-04-23 13:32:00,42.0,-99.9,29.92,SSE,160,15.0,-999.0,-999,-99.99,,,-99.99,,2013-04-23 13:32:00,
2013-04-23 13:42:00,42.0,-99.9,29.92,SSE,160,15.0,-999.0,-999,-99.99,,,-99.99,,2013-04-23 13:42:00,
2013-04-23 13:52:00,42.0,-99.9,29.92,SSE,160,15.0,-999.0,-999,-99.99,,,-99.99,,2013-04-23 13:52:00,
2013-04-23 14:00:00,41.0,-99.9,29.92,South,190,15.0,-999.0,-999,-99.99,,,-99.99,,2013-04-23 14:00:00,
2013-04-23 14:32:00,41.0,-99.9,29.92,South,190,15.0,-999.0,-999,-99.99,,,-99.99,,2013-04-23 14:32:00,
2013-04-23 14:42:00,41.0,-99.9,29.92,South,190,15.0,-999.0,-999,-99.99,,,-99.99,,2013-04-23 14:42:00,
2013-04-23 14:52:00,41.0,-99.9,29.92,South,190,15.0,-999.0,-999,-99.99,,,-99.99,,2013-04-23 14:52:00,
2013-04-23 15:00:00,41.0,-99.9,29.92,South,180,10.0,-999.0,-999,-99.99,,,-99.99,,2013-04-23 15:00:00,
2013-04-23 15:22:00,41.0,-99.9,29.92,South,180,10.0,-999.0,-999,-99.99,,,-99.99,,2013-04-23 15:22:00,
2013-04-23 15:32:00,41.0,-99.9,29.92,South,180,10.0,-999.0,-999,-99.99,,,-99.99,,2013-04-23 15:32:00,
2013-04-23 15:43:00,41.0,-99.9,29.92,South,180,10.0,-999.0,-999,-99.99,,,-99.99,,2013-04-23 15:43:00,
2013-04-23 15:53:00,41.0,-99.9,29.92,South,180,10.0,-999.0,-999,-99.99,,,-99.99,,2013-04-23 15:53:00,
2013-04-23 16:23:00,43.0,-99.9,29.92,South,180,15.0,-999.0,-999,-99.99,,,-99.99,,2013-04-23 16:23:00,
2013-04-23 23:00:00,38.0,-99.9,29.96,North,350,17.0,-999.0,-999,-99.99,,,-99.99,,2013-04-23 23:00:00,
2013-04-23 23:42:00,38.0,-99.9,29.96,North,350,17.0,-999.0,-999,-99.99,,,-99.99,,2013-04-23 23:42:00,
2013-04-23 23:52:00,38.0,-99.9,29.96,North,350,17.0,-999.0,-999,-99.99,,,-99.99,,2013-04-23 23:52:00,